+ View the NASA Portal
+ Center for Near-Earth Object Studies
IMPORTANT:
The SSD Announcement email list is now available. Major changes are coming in the near future, including possible hostname and/or URL changes. To be notified of such changes, subscribe to this email list.
Please visit
this page
for more details.
Don't show this message again
JPL Small-Body Database Browser
Search:
[
help
]
266421 (2007 GG17)
Classification:
Main-belt Asteroid
SPK-ID:
2266421
[
Ephemeris
|
Orbit Diagram
|
Orbital Elements
|
Mission Design
|
Physical Parameters
|
Discovery Circumstances
]
[ show orbit diagram ]
Orbital Elements at Epoch 2458600.5 (2019-Apr-27.0) TDB
Reference:
JPL 15
(heliocentric ecliptic J2000)
Element
Value
Uncertainty (1-sigma)
Units
e
.1062557128392088
4.6241e-08
a
2.963403367394838
3.4209e-08
au
q
2.648524830162188
1.325e-07
au
i
10.43183268090657
6.6202e-06
deg
node
23.58841532768651
2.9526e-05
deg
peri
301.2886820800248
4.4854e-05
deg
M
33.11047772277166
3.4739e-05
deg
t
p
2458429.124976230941
(2018-Nov-06.62497623)
0.00017994
TDB
period
1863.307714054232
5.10
3.2265e-05
8.834e-08
d
yr
n
.1932048030954066
3.3455e-09
deg/d
Q
3.278281904627488
3.7844e-08
au
Orbit Determination Parameters
# obs. used (total)
336
data-arc span
6406 days (17.54 yr)
first obs. used
2002-05-14
last obs. used
2019-11-27
planetary ephem.
DE431
SB-pert. ephem.
SB431-N16
condition code
0
norm. resid. RMS
.56237
source
ORB
producer
Otto Matic
solution date
2019-Dec-04 19:33:43
Additional Information
Earth MOID
= 1.65522 au
Jupiter MOID
= 2.11963 au
T_jup
= 3.232
[ show covariance matrix ]
[
Ephemeris
|
Orbit Diagram
|
Orbital Elements
|
Mission Design
|
Physical Parameters
|
Discovery Circumstances
]
Physical Parameter Table
Parameter
Symbol
Value
Units
Sigma
Reference
Notes
absolute magnitude
H
15.2
n/a
MPO454980
diameter
diameter
3.630
km
0.299
urn:nasa:pds:neowise_diameters_albedos::2.0[mainbelt] (http://adsabs.harvard.edu/abs/2011ApJ...741...68M)
geometric albedo
albedo
0.147
0.058
urn:nasa:pds:neowise_diameters_albedos::2.0[mainbelt] (http://adsabs.harvard.edu/abs/2011ApJ...741...68M)
266421 (2007 GG17)
Discovered 2007-Apr-11 by Spacewatch at Kitt Peak
Reference:
20110218/Numbers.arc
Last Updated:
2011-02-22
[
Ephemeris
|
Orbit Diagram
|
Orbital Elements
|
Mission Design
|
Physical Parameters
|
Discovery Circumstances
]
2019-Dec-08 06:23 UT
(server date/time)
Site Manager:
Ryan S. Park
Webmaster
:
Alan B. Chamberlin